{"data":{"norad_id":61196,"epoch":"2026-09-22T20:09:54.995904Z","epoch_age_seconds":92385,"freshness":"FRESH","line1":"1 61196U 24170B   26265.84021986 -.00000011  00000+0  81648-4 0  9999","line2":"2 61196  44.8585  62.5100 0009147 199.4969 160.5513 13.97723787102717","mean_motion":13.97723787,"eccentricity":0.0009147,"inclination_deg":44.8585,"raan_deg":62.51,"arg_perigee_deg":199.4969,"mean_anomaly_deg":160.5513,"bstar":8.1648e-5,"rev_number":10271,"period_min":103.0246471723,"perigee_km":895.0291065463,"apogee_km":908.34681833258,"semimajor_km":7279.8249624394,"source":"CELESTRAK","updated_at":"2026-09-23T09:00:20.814169Z"}}